Location: Berlin
(52.5170°N, 13.3889°E)
Time: 23:24:53
(UTC+02:00)

LES 1 - Pass Details

Date: 24 June 2025
Orbit: 2779 x 2808 km, 32.1° (Epoch: 12 July)

Event Time Altitude Azimuth Distance (km) Brightness Sun altitude
Rises 00:28:54 0° 249° (WSW) 6,571 12.2 -13.6°
Reaches altitude 10° 00:33:35 10° 241° (WSW) 5,552 11.7 -13.7°
Maximum altitude 00:47:03 35° 182° (S) 3,871 10.5 -13.9°
Drops below altitude 10° 01:00:32 10° 124° (SE) 5,562 11.5 -14.1°
Sets 01:05:14 0° 116° (ESE) 6,585 12.0 -14.1°
